Torna al catalogo

FENGYUN 1C DEB

AttivoPO
NORAD 35207·DEBRIS·🇨🇳 China

Lanciato May 10, 1999 da Taiyuan Satellite Launch Center

Loading…

Prossimi Passaggi (prossime 24 ore)

TLE

AggiornatoSource: Space-Track

Epoca: Sep 13, 2026, 12:59 UTC

1 35207U 99025DPP 26256.54166177  .00005932  00000-0  12303-2 0  9990
2 35207  98.7005  12.1077 0052686 133.6397 226.9189 14.59712952689088

Traccia FENGYUN 1C DEB in tempo reale con AllMySat

Download on the App Store